QPF
0.00 0.00 0.00 0.00 0.00 0.00 0.00 0.00 0.01 0.01 0.01 0.00 0.00 0.01 0.02 0.02 0.04 0.03 0.01 0.01 0.00 0.00 0.00 0.00 0.00 0.00 0.00 0.00 0.00 0.00 0.00 0.00 0.00 0.00 0.01 0.01 0.02 0.03
0.00 0.00 0.00 0.00 0.00 0.00 0.00 0.00 0.00 0.00 0.00 0.00 0.00 0.01 0.01 0.01 0.02 0.02 0.01 0.01 0.00 0.00 0.00 0.00 0.00 0.00 0.00 0.00 0.00 0.00 0.00 0.00 0.00 0.00 0.00 0.01 0.01 0.02
0.00 0.00 0.00 0.00 0.00 0.00 0.00 0.00 0.00 0.00 0.00 0.00 0.00 0.00 0.00 0.01 0.01 0.01 0.01 0.01 0.00 0.00 0.00 0.00 0.00 0.00 0.00 0.00 0.00 0.00 0.00 0.00 0.00 0.00 0.00 0.00 0.01 0.02
0.00 0.00 0.00 0.00 0.00 0.00 0.00 0.00 0.00 0.00 0.00 0.00 0.00 0.00 0.00 0.00 0.00 0.00 0.01 0.01 0.00 0.00 0.00 0.00 0.00 0.00 0.00 0.00 0.00 0.00 0.00 0.00 0.00 0.00 0.00 0.00 0.01 0.01
0.01 0.01 0.00 0.00 0.00 0.00 0.00 0.00 0.00 0.00 0.00 0.00 0.00 0.00 0.00 0.00 0.00 0.00 0.00 0.00 0.00 0.00 0.00 0.00 0.00 0.00 0.00 0.00 0.00 0.00 0.00 0.00 0.00 0.00 0.00 0.00 0.00 0.00
0.00 0.00 0.00 0.00 0.00 0.00 0.00 0.00 0.00 0.00 0.00 0.00 0.00 0.00 0.00 0.00 0.00 0.00 0.00 0.00 0.00 0.00 0.00 0.00 0.00 0.00 0.00 0.00 0.00 0.00 0.00 0.00 0.00 0.00 0.00 0.00 0.00 0.00
0.00 0.00 0.00 0.00 0.00 0.00 0.00 0.00 0.01 0.01 0.01 0.01 0.01 0.01 0.01 0.01 0.01 0.00 0.00 0.01 0.01 0.00 0.00 0.01 0.00 0.01 0.01 0.01 0.00 0.00 0.00 0.00 0.00 0.00 0.00 0.00 0.00 0.00
0.01 0.01 0.01 0.01 0.00 0.00 0.00 0.00 0.00 0.00 0.01 0.01 0.02 0.02 0.02 0.02 0.01 0.01 0.01 0.01 0.01 0.01 0.01 0.01 0.01 0.01 0.02 0.01 0.00 0.00 0.00 0.00 0.00 0.00 0.00 0.00 0.00 0.00
0.01 0.01 0.00 0.00 0.00 0.00 0.00 0.00 0.00 0.00 0.00 0.00 0.02 0.02 0.02 0.02 0.01 0.01 0.02 0.01 0.02 0.02 0.01 0.01 0.02 0.02 0.01 0.00 0.00 0.00 0.00 0.00 0.00 0.00 0.00 0.00 0.00 0.00
0.01 0.01 0.01 0.02 0.00 0.00 0.00 0.01 0.01 0.01 0.00 0.00 0.01 0.02 0.01 0.01 0.01 0.01 0.01 0.01 0.02 0.03 0.01 0.01 0.02 0.03 0.02 0.02 0.00 0.00 0.00 0.00 0.00 0.00 0.00 0.00 0.00 0.00
0.00 0.00 0.00 0.01 0.00 0.00 0.00 0.02 0.02 0.02 0.00 0.00 0.00 0.00 0.00 0.00 0.00 0.00 0.02 0.03 0.03 0.03 0.01 0.02 0.03 0.02 0.02 0.03 0.02 0.00 0.00 0.00 0.00 0.00 0.00 0.00 0.00 0.01
0.01 0.01 0.00 0.00 0.00 0.00 0.01 0.02 0.03 0.02 0.01 0.01 0.01 0.01 0.02 0.01 0.00 0.01 0.03 0.03 0.03 0.04 0.02 0.02 0.03 0.02 0.02 0.03 0.04 0.03 0.03 0.01 0.00 0.00 0.00 0.00 0.00 0.02
0.01 0.01 0.01 0.00 0.00 0.00 0.00 0.01 0.01 0.00 0.01 0.01 0.01 0.02 0.03 0.04 0.03 0.03 0.02 0.02 0.03 0.04 0.02 0.02 0.03 0.03 0.03 0.03 0.03 0.02 0.02 0.03 0.03 0.02 0.01 0.00 0.00 0.01
0.02 0.01 0.01 0.00 0.00 0.00 0.00 0.00 0.00 0.00 0.01 0.01 0.01 0.02 0.02 0.02 0.02 0.01 0.02 0.02 0.03 0.03 0.02 0.02 0.03 0.04 0.04 0.04 0.03 0.02 0.02 0.02 0.02 0.03 0.03 0.02 0.01 0.01
0.01 0.00 0.00 0.00 0.00 0.00 0.00 0.00 0.00 0.01 0.01 0.01 0.02 0.02 0.01 0.01 0.01 0.02 0.02 0.03 0.03 0.01 0.00 0.00 0.02 0.03 0.04 0.04 0.04 0.03 0.02 0.02 0.02 0.03 0.04 0.04 0.03 0.02
0.01 0.00 0.00 0.00 0.00 0.00 0.00 0.00 0.01 0.01 0.00 0.01 0.01 0.01 0.01 0.01 0.02 0.01 0.02 0.03 0.03 0.03 0.01 0.00 0.01 0.02 0.04 0.03 0.03 0.03 0.03 0.02 0.02 0.02 0.04 0.04 0.03 0.02
0.01 0.01 0.01 0.01 0.01 0.00 0.00 0.00 0.00 0.01 0.00 0.00 0.01 0.01 0.01 0.01 0.02 0.01 0.01 0.02 0.02 0.02 0.02 0.01 0.01 0.01 0.01 0.02 0.02 0.03 0.02 0.02 0.02 0.02 0.03 0.04 0.03 0.02
0.01 0.02 0.01 0.01 0.00 0.00 0.00 0.00 0.00 0.00 0.00 0.00 0.01 0.01 0.01 0.01 0.01 0.01 0.01 0.02 0.01 0.01 0.01 0.01 0.01 0.02 0.02 0.02 0.01 0.01 0.02 0.02 0.02 0.03 0.02 0.03 0.03 0.02
0.01 0.01 0.01 0.00 0.00 0.00 0.00 0.00 0.00 0.00 0.00 0.00 0.00 0.01 0.00 0.01 0.01 0.01 0.01 0.01 0.00 0.01 0.01 0.01 0.01 0.02 0.02 0.02 0.01 0.00 0.01 0.02 0.03 0.03 0.02 0.02 0.03 0.02
0.01 0.00 0.00 0.00 0.00 0.00 0.00 0.00 0.00 0.00 0.00 0.00 0.00 0.00 0.01 0.01 0.01 0.01 0.01 0.00 0.00 0.00 0.00 0.00 0.00 0.00 0.01 0.01 0.01 0.01 0.00 0.00 0.01 0.02 0.02 0.02 0.02 0.01
0.00 0.00 0.00 0.00 0.00 0.00 0.00 0.00 0.00 0.00 0.00 0.00 0.00 0.00 0.00 0.00 0.00 0.00 0.00 0.00 0.00 0.00 0.00 0.00 0.00 0.00 0.00 0.00 0.01 0.02 0.01 0.00 0.00 0.00 0.01 0.01 0.01 0.02
0.00 0.00 0.00 0.00 0.00 0.00 0.00 0.00 0.00 0.00 0.00 0.00 0.00 0.00 0.00 0.00 0.00 0.00 0.00 0.00 0.00 0.00 0.00 0.00 0.00 0.00 0.01 0.01 0.01 0.01 0.01 0.01 0.00 0.00 0.00 0.00 0.00 0.01
0.00 0.00 0.00 0.00 0.00 0.00 0.00 0.00 0.00 0.00 0.00 0.00 0.00 0.00 0.00 0.00 0.00 0.00 0.00 0.00 0.00 0.00 0.00 0.00 0.00 0.00 0.00 0.00 0.00 0.00 0.00 0.00 0.00 0.01 0.00 0.00 0.00 0.00
MSLP
1022.27 1022.36 1022.47 1022.59 1022.72 1022.83 1022.91 1022.95 1022.95 1022.90 1022.83 1022.75 1022.68 1022.65 1022.65 1022.71 1022.80 1022.93 1023.06 1023.17 1023.25 1023.28 1023.25 1023.16 1023.02 1022.82 1022.60 1022.35 1022.08 1021.78 1021.47 1021.13 1020.76 1020.36 1019.94 1019.50 1019.06 1018.64
1022.79 1022.84 1022.90 1022.96 1023.00 1023.02 1023.01 1022.96 1022.88 1022.77 1022.65 1022.54 1022.45 1022.40 1022.39 1022.44 1022.52 1022.62 1022.73 1022.83 1022.91 1022.94 1022.93 1022.88 1022.78 1022.65 1022.50 1022.31 1022.10 1021.85 1021.56 1021.23 1020.85 1020.42 1019.95 1019.44 1018.94 1018.45
1023.23 1023.28 1023.32 1023.35 1023.35 1023.32 1023.25 1023.15 1023.01 1022.85 1022.69 1022.54 1022.42 1022.33 1022.29 1022.29 1022.32 1022.37 1022.44 1022.49 1022.53 1022.54 1022.53 1022.49 1022.43 1022.35 1022.26 1022.14 1021.99 1021.81 1021.57 1021.27 1020.90 1020.46 1019.96 1019.42 1018.87 1018.32
1023.60 1023.67 1023.73 1023.76 1023.75 1023.71 1023.61 1023.48 1023.31 1023.12 1022.93 1022.74 1022.57 1022.44 1022.34 1022.28 1022.24 1022.22 1022.20 1022.19 1022.16 1022.13 1022.09 1022.04 1021.99 1021.95 1021.90 1021.85 1021.77 1021.65 1021.47 1021.22 1020.88 1020.46 1019.97 1019.41 1018.83 1018.25
1023.94 1024.03 1024.11 1024.16 1024.18 1024.14 1024.05 1023.91 1023.73 1023.52 1023.30 1023.07 1022.87 1022.68 1022.52 1022.39 1022.27 1022.16 1022.06 1021.95 1021.85 1021.75 1021.66 1021.58 1021.53 1021.49 1021.47 1021.46 1021.44 1021.38 1021.27 1021.07 1020.79 1020.40 1019.93 1019.39 1018.80 1018.19
1024.25 1024.37 1024.47 1024.55 1024.59 1024.58 1024.50 1024.36 1024.18 1023.96 1023.71 1023.46 1023.21 1022.98 1022.76 1022.56 1022.37 1022.18 1021.99 1021.81 1021.62 1021.45 1021.30 1021.17 1021.08 1021.04 1021.03 1021.04 1021.05 1021.04 1020.98 1020.84 1020.61 1020.28 1019.85 1019.33 1018.75 1018.14
1024.56 1024.68 1024.81 1024.91 1024.96 1024.96 1024.89 1024.76 1024.57 1024.34 1024.08 1023.80 1023.53 1023.26 1022.99 1022.74 1022.49 1022.24 1021.99 1021.73 1021.48 1021.23 1021.02 1020.84 1020.71 1020.63 1020.60 1020.61 1020.64 1020.66 1020.64 1020.55 1020.38 1020.10 1019.71 1019.23 1018.67 1018.08
1024.86 1024.98 1025.10 1025.20 1025.26 1025.26 1025.19 1025.05 1024.85 1024.61 1024.33 1024.03 1023.74 1023.44 1023.16 1022.87 1022.59 1022.31 1022.01 1021.71 1021.40 1021.10 1020.83 1020.59 1020.41 1020.29 1020.23 1020.22 1020.24 1020.27 1020.27 1020.22 1020.08 1019.85 1019.51 1019.07 1018.55 1017.98
1025.14 1025.23 1025.34 1025.42 1025.46 1025.44 1025.36 1025.20 1024.99 1024.72 1024.43 1024.12 1023.80 1023.50 1023.21 1022.92 1022.63 1022.33 1022.02 1021.70 1021.36 1021.02 1020.71 1020.42 1020.19 1020.01 1019.91 1019.86 1019.85 1019.87 1019.88 1019.84 1019.74 1019.55 1019.26 1018.87 1018.39 1017.85
1025.38 1025.45 1025.52 1025.57 1025.58 1025.53 1025.41 1025.23 1024.98 1024.69 1024.38 1024.05 1023.74 1023.43 1023.14 1022.86 1022.59 1022.30 1021.99 1021.67 1021.32 1020.96 1020.61 1020.29 1020.00 1019.78 1019.62 1019.52 1019.48 1019.47 1019.46 1019.43 1019.35 1019.19 1018.95 1018.61 1018.18 1017.69
1025.58 1025.62 1025.66 1025.67 1025.63 1025.54 1025.38 1025.16 1024.88 1024.56 1024.23 1023.89 1023.57 1023.27 1022.99 1022.73 1022.47 1022.20 1021.91 1021.59 1021.24 1020.88 1020.51 1020.15 1019.82 1019.55 1019.33 1019.18 1019.10 1019.05 1019.02 1018.99 1018.92 1018.79 1018.59 1018.31 1017.95 1017.52
1025.75 1025.75 1025.75 1025.71 1025.64 1025.50 1025.30 1025.04 1024.73 1024.39 1024.03 1023.69 1023.36 1023.06 1022.79 1022.54 1022.29 1022.04 1021.77 1021.46 1021.12 1020.75 1020.36 1019.98 1019.62 1019.30 1019.03 1018.83 1018.70 1018.62 1018.57 1018.52 1018.47 1018.37 1018.22 1018.00 1017.71 1017.35
1025.88 1025.85 1025.81 1025.73 1025.61 1025.44 1025.20 1024.91 1024.57 1024.21 1023.85 1023.49 1023.16 1022.86 1022.59 1022.34 1022.10 1021.85 1021.59 1021.28 1020.94 1020.57 1020.17 1019.77 1019.38 1019.03 1018.72 1018.48 1018.30 1018.19 1018.11 1018.07 1018.02 1017.96 1017.85 1017.70 1017.49 1017.22
1025.98 1025.92 1025.84 1025.73 1025.57 1025.36 1025.10 1024.79 1024.45 1024.08 1023.70 1023.34 1023.00 1022.69 1022.41 1022.16 1021.91 1021.66 1021.38 1021.08 1020.73 1020.35 1019.95 1019.53 1019.12 1018.75 1018.41 1018.14 1017.93 1017.79 1017.70 1017.65 1017.62 1017.59 1017.53 1017.45 1017.32 1017.14
1026.06 1025.96 1025.84 1025.69 1025.51 1025.28 1025.01 1024.70 1024.35 1023.98 1023.61 1023.25 1022.90 1022.58 1022.29 1022.01 1021.74 1021.47 1021.18 1020.86 1020.51 1020.12 1019.71 1019.29 1018.88 1018.49 1018.14 1017.85 1017.62 1017.46 1017.36 1017.31 1017.29 1017.29 1017.28 1017.26 1017.21 1017.12
1026.08 1025.94 1025.79 1025.62 1025.42 1025.18 1024.92 1024.61 1024.28 1023.93 1023.57 1023.21 1022.86 1022.53 1022.21 1021.91 1021.61 1021.31 1021.00 1020.66 1020.30 1019.91 1019.51 1019.09 1018.68 1018.29 1017.94 1017.64 1017.40 1017.23 1017.12 1017.07 1017.06 1017.08 1017.12 1017.15 1017.16 1017.15
1026.05 1025.87 1025.69 1025.49 1025.29 1025.06 1024.81 1024.54 1024.24 1023.91 1023.57 1023.22 1022.87 1022.52 1022.18 1021.85 1021.52 1021.19 1020.85 1020.50 1020.13 1019.74 1019.34 1018.94 1018.54 1018.17 1017.82 1017.53 1017.29 1017.11 1016.99 1016.94 1016.93 1016.96 1017.02 1017.09 1017.15 1017.20
1025.95 1025.74 1025.52 1025.32 1025.13 1024.93 1024.71 1024.48 1024.22 1023.93 1023.62 1023.28 1022.93 1022.56 1022.20 1021.83 1021.46 1021.10 1020.73 1020.36 1019.99 1019.61 1019.23 1018.85 1018.48 1018.12 1017.79 1017.51 1017.26 1017.08 1016.95 1016.88 1016.86 1016.89 1016.96 1017.05 1017.14 1017.22
1025.79 1025.55 1025.33 1025.14 1024.97 1024.80 1024.64 1024.45 1024.24 1023.99 1023.71 1023.38 1023.03 1022.64 1022.25 1021.84 1021.44 1021.04 1020.65 1020.27 1019.89 1019.53 1019.17 1018.81 1018.47 1018.13 1017.82 1017.54 1017.29 1017.09 1016.94 1016.85 1016.81 1016.82 1016.88 1016.97 1017.07 1017.17
1025.59 1025.35 1025.14 1024.98 1024.85 1024.74 1024.62 1024.50 1024.33 1024.12 1023.86 1023.54 1023.17 1022.76 1022.33 1021.88 1021.43 1021.00 1020.58 1020.19 1019.82 1019.46 1019.12 1018.80 1018.48 1018.17 1017.87 1017.59 1017.33 1017.11 1016.93 1016.80 1016.73 1016.71 1016.73 1016.80 1016.90 1017.00
1025.39 1025.17 1025.00 1024.89 1024.81 1024.76 1024.71 1024.64 1024.52 1024.34 1024.08 1023.76 1023.36 1022.92 1022.43 1021.94 1021.44 1020.97 1020.52 1020.11 1019.74 1019.40 1019.08 1018.78 1018.48 1018.19 1017.90 1017.61 1017.34 1017.09 1016.87 1016.70 1016.58 1016.51 1016.50 1016.53 1016.60 1016.69
1025.23 1025.06 1024.95 1024.90 1024.89 1024.90 1024.91 1024.89 1024.80 1024.63 1024.38 1024.03 1023.60 1023.10 1022.56 1022.01 1021.46 1020.94 1020.47 1020.04 1019.66 1019.33 1019.02 1018.74 1018.46 1018.18 1017.89 1017.59 1017.30 1017.02 1016.76 1016.54 1016.36 1016.24 1016.18 1016.17 1016.20 1016.26
1025.15 1025.04 1025.00 1025.02 1025.08 1025.16 1025.22 1025.23 1025.16 1025.00 1024.72 1024.34 1023.86 1023.30 1022.70 1022.08 1021.48 1020.91 1020.40 1019.96 1019.57 1019.24 1018.95 1018.68 1018.42 1018.14 1017.85 1017.55 1017.23 1016.91 1016.61 1016.34 1016.11 1015.93 1015.81 1015.75 1015.73 1015.75
Thickness
5606 5605 5604 5601 5600 5600 5599 5599 5597 5596 5592 5582 5578 5573 5568 5565 5560 5558 5556 5552 5548 5545 5542 5540 5538 5536 5533 5531 5528 5526 5524 5522 5521 5519 5518 5517 5516 5514
5591 5590 5589 5589 5586 5586 5585 5583 5582 5581 5579 5573 5565 5561 5555 5554 5550 5547 5546 5542 5540 5536 5533 5530 5528 5525 5523 5520 5517 5515 5513 5510 5508 5507 5505 5504 5502 5501
5579 5578 5575 5574 5574 5573 5571 5569 5567 5565 5563 5559 5555 5551 5544 5542 5541 5538 5538 5536 5537 5529 5525 5521 5518 5515 5512 5509 5507 5504 5501 5499 5497 5495 5493 5491 5490 5489
5567 5565 5563 5561 5558 5558 5556 5555 5552 5548 5549 5545 5543 5542 5536 5533 5531 5529 5531 5530 5527 5523 5518 5514 5510 5507 5503 5500 5497 5494 5492 5489 5486 5484 5482 5481 5479 5477
5555 5553 5550 5548 5546 5544 5543 5542 5541 5538 5535 5535 5534 5531 5530 5527 5525 5525 5525 5521 5521 5519 5514 5509 5505 5500 5497 5493 5490 5486 5483 5480 5478 5475 5472 5470 5468 5467
5542 5540 5538 5537 5534 5532 5531 5529 5528 5527 5526 5527 5527 5525 5523 5521 5518 5519 5519 5518 5516 5514 5510 5506 5501 5497 5492 5488 5484 5480 5476 5472 5469 5466 5464 5461 5459 5457
5531 5529 5526 5521 5517 5516 5518 5517 5517 5518 5519 5519 5519 5518 5516 5513 5512 5511 5511 5510 5510 5507 5505 5503 5500 5496 5490 5485 5479 5473 5469 5466 5463 5460 5457 5454 5452 5449
5522 5520 5516 5513 5508 5505 5503 5502 5500 5504 5507 5507 5509 5507 5504 5504 5502 5501 5502 5503 5502 5501 5498 5497 5495 5492 5488 5483 5474 5469 5464 5461 5457 5454 5451 5448 5446 5443
5512 5510 5510 5506 5502 5502 5499 5495 5495 5492 5490 5493 5497 5496 5495 5496 5493 5495 5495 5494 5492 5493 5492 5492 5492 5488 5485 5479 5472 5466 5461 5456 5453 5449 5446 5443 5441 5438
5503 5501 5500 5498 5495 5491 5494 5495 5494 5493 5489 5486 5488 5487 5489 5486 5485 5486 5487 5488 5489 5490 5488 5488 5487 5485 5483 5476 5469 5464 5459 5454 5450 5446 5442 5439 5437 5435
5495 5493 5491 5490 5482 5481 5485 5489 5489 5488 5485 5483 5481 5480 5480 5479 5477 5480 5485 5487 5489 5488 5486 5484 5483 5482 5480 5475 5469 5463 5458 5453 5448 5444 5439 5436 5434 5434
5490 5486 5479 5479 5475 5475 5479 5482 5483 5483 5483 5483 5481 5480 5480 5479 5476 5475 5480 5483 5484 5483 5482 5479 5479 5479 5478 5475 5470 5465 5459 5454 5449 5444 5439 5435 5432 5433
5486 5484 5478 5471 5470 5470 5470 5473 5472 5472 5478 5481 5482 5482 5481 5480 5479 5477 5477 5477 5478 5478 5478 5476 5476 5476 5475 5473 5471 5467 5462 5457 5451 5446 5440 5434 5430 5427
5477 5477 5471 5466 5465 5465 5466 5465 5466 5468 5475 5477 5478 5479 5479 5478 5477 5476 5474 5474 5472 5472 5472 5471 5472 5471 5471 5470 5469 5466 5462 5458 5453 5448 5443 5435 5431 5426
5469 5464 5462 5462 5462 5463 5461 5462 5465 5470 5472 5473 5473 5474 5474 5474 5473 5473 5474 5473 5473 5474 5473 5471 5470 5470 5469 5468 5467 5465 5462 5459 5454 5450 5445 5439 5434 5429
5466 5462 5459 5460 5460 5460 5462 5464 5465 5465 5464 5467 5468 5469 5471 5471 5473 5473 5473 5474 5475 5476 5474 5472 5470 5469 5469 5469 5468 5466 5463 5459 5455 5451 5447 5441 5436 5431
5459 5463 5464 5463 5463 5463 5463 5463 5462 5462 5462 5462 5464 5466 5468 5469 5470 5471 5471 5473 5474 5475 5476 5476 5474 5473 5472 5470 5469 5467 5464 5461 5458 5453 5449 5446 5440 5434
5456 5461 5460 5460 5460 5459 5459 5459 5459 5458 5457 5459 5461 5463 5464 5465 5467 5470 5471 5472 5473 5475 5476 5477 5477 5477 5477 5475 5466 5467 5466 5463 5460 5457 5453 5449 5445 5439
5457 5458 5457 5456 5455 5455 5454 5454 5454 5453 5452 5455 5458 5459 5461 5463 5466 5468 5470 5471 5473 5475 5476 5478 5478 5477 5477 5476 5473 5464 5464 5463 5462 5460 5457 5454 5449 5444
5457 5455 5454 5452 5451 5450 5450 5449 5449 5450 5451 5453 5455 5457 5459 5461 5464 5467 5469 5469 5471 5474 5477 5479 5478 5476 5475 5474 5474 5473 5465 5464 5463 5462 5460 5458 5455 5448
5455 5453 5451 5449 5448 5447 5446 5446 5446 5447 5448 5450 5453 5454 5457 5460 5463 5466 5469 5469 5470 5476 5477 5479 5477 5472 5475 5478 5479 5477 5473 5466 5462 5460 5460 5460 5459 5457
5453 5451 5449 5446 5445 5445 5445 5445 5446 5447 5448 5450 5452 5454 5456 5459 5463 5465 5469 5472 5475 5477 5479 5481 5482 5482 5483 5482 5481 5481 5479 5475 5469 5463 5458 5455 5455 5455
5451 5449 5449 5447 5445 5444 5444 5444 5444 5446 5447 5448 5450 5453 5456 5460 5463 5467 5471 5474 5477 5479 5482 5484 5485 5486 5487 5486 5486 5485 5483 5482 5480 5476 5471 5462 5457 5453